User: anonymous
Location: Columbus
(29.5618°N, 96.6770°W)
Time: 19:19:00
(UTC-05:00)
Language:

Cosmos 2056 Rocket - Orbit

View from above orbital plane
View from above orbital plane
View from above satellite
View from above satellite

Ground track
Ground track

The orbit data is extracted from the following two-line orbital elements,

1 20433U 90004B   14265.45251925  .00000190  00000-0  74051-4 0  8277
2 20433 074.0386 029.3254 0040746 040.7248 020.7703 14.35672450291854
Epoch (UTC): 22 September 2014 10:51:37
Eccentricity: 0.0040746
inclination: 74.0386°
perigee height: 743 km
apogee height: 802 km
right ascension of ascending node: 29.3254°
argument of perigee: 40.7248°
revolutions per day: 14.35672450
mean anomaly at epoch: 20.7703°
orbit number at epoch: 29185

The dashed part of the orbit path shows where the satellite is in the earth's shadow,  

DLR